Tracking 32420 objects as of 8-Dec-2025
HD Live streaming from Space Station
objects crossing your sky now

STARLINK-32346

Track STARLINK-32346 now!
10-day predictions
STARLINK-32346 is classified as:


NORAD ID: 61849
Int'l Code: 2024-202E
Perigee: 489.8 km
Apogee: 490.7 km
Inclination: 43.0 °
Period: 94.3 minutes
Semi major axis: 6861 km
RCS: Unknown
Launch date: November 7, 2024
Source: United States (US)
Launch site: AIR FORCE EASTERN TEST RANGE (AFETR)
Your satellite tracking list
Your tracking list is empty




NASA's NSSDC Master Catalog

Two Line Element Set (TLE):
1 61849U 24202E   25341.41844524  .00003083  00000-0  12153-3 0  9994
2 61849  42.9991  28.0412 0000664 260.9029  99.1747 15.27569248 61345
Source of the keplerian elements: AFSPC